Regional Weather Roundup
Issued by NWS

Home | Current Version | Previous Version | Text Only | Print | Product List | Glossary Off
Versions: 1 2 3 4 5 6 7 8 9 10 11 12 13 14 15 16 17 18 19 20 21 22 23 24 25 26 27 28 29 30 31 32 33 34 35 36 37 38 39 40 41 42 43 44 45 46 47 48 49 50

000
ASUS43 KMKX 291621
RWRWI

WISCONSIN REGIONAL WEATHER ROUNDUP
NATIONAL WEATHER SERVICE MILWAUKEE/SULLIVAN WI
1100 AM CDT FRI AUG 29 2014

NOTE: "FAIR" INDICATES FEW OR NO CLOUDS BELOW 12,000 FEET WITH NO
SIGNIFICANT WEATHER AND/OR OBSTRUCTIONS TO VISIBILITY.

WIZ001-002-006>008-014>016-023>028-291700-
NORTHWEST WISCONSIN

CITY           SKY/WX    TMP DP  RH WIND       PRES   REMARKS
SUPERIOR ARPT  RAIN      63  62  99 CALM      29.79F
ASHLAND        LGT RAIN  63  61  93 S5        29.83F
HAYWARD        CLOUDY    61  60  97 S6        29.85F
SIREN          CLOUDY    64  63  97 SE7       29.81F FOG
RICE LAKE      CLOUDY    64  63  95 SE7       29.86F FOG
LADYSMITH      CLOUDY    64  63  96 SE3       29.89S FOG
EAU CLAIRE     CLOUDY    69  67  93 S8        29.85S
MENOMONIE      CLOUDY    68  67  98 SE8       29.84F
NEW RICHMOND   CLOUDY    72  68  88 S9        29.82S
OSCEOLA        RAIN      72  70  93 S9        29.83S
$$

WIZ003>005-009-010-017-018-291700-
NORTH CENTRAL WISCONSIN

CITY           SKY/WX    TMP DP  RH WIND       PRES   REMARKS
WOODRUFF       CLOUDY    62  60  94 S8        29.91F FOG
RHINELANDER    CLOUDY    61  60  97 VRB5      29.93S
EAGLE RIVER    LGT RAIN  61  61 100 S6        29.92F
LAND O LAKES   CLOUDY    60  59  97 S7        29.94R FOG
PHILLIPS       CLOUDY    63  62  97 S9        29.88F FOG
TOMAHAWK       FOG       61  60  97 CALM      29.92S VSB 1
MEDFORD        FOG       63  63 100 SE8       29.91R VSB 3/4
MERRILL        CLOUDY    63  63 100 S3        29.92R FOG
$$

WIZ029-030-035-036-043>047-291700-
CENTRAL WISCONSIN

CITY           SKY/WX    TMP DP  RH WIND       PRES   REMARKS
WAUSAU         CLOUDY    63  62  97 SE8       29.90F FOG
MOSINEE        NOT AVBL
MARSHFIELD     CLOUDY    67  66  97 S8        29.90S FOG
STEVENS POINT  CLOUDY    65  64  94 S5        29.92S FOG
WAUPACA        CLOUDY    72  69  90 S5        29.92R FOG
WAUTOMA        LGT RAIN  71  67  87 SE8       29.91F
WISC RAPIDS    CLOUDY    69  66  90 S6        29.91F
CAMP DOUGLAS   CLOUDY    73  73 100 S9        29.89R
$$

WIZ011>013-019>022-031-037>040-048>050-291700-
NORTHEAST WISCONSIN

CITY           SKY/WX    TMP DP  RH WIND       PRES   REMARKS
ANTIGO         FOG       61  61 100 SE8       29.94S VSB 1/4
STURGEON BAY   CLOUDY    68  64  88 S17G24    29.94S
GREEN BAY      CLOUDY    73  69  87 S12       29.92F
MANITOWOC      CLOUDY    72  68  87 S17G23    29.95S
APPLETON       PTSUNNY   73  68  83 S12       29.93F
CLINTONVILLE   CLOUDY    70  66  88 S8        29.91S
OSHKOSH        SUNNY     77  70  79 S14       29.91F
$$

WIZ032>034-041-042-053>061-291700-
SOUTHWEST WISCONSIN

CITY           SKY/WX    TMP DP  RH WIND       PRES   REMARKS
LA CROSSE      PTSUNNY   77  69  76 S12       29.85R
SPARTA         PTSUNNY   75  66  73 SW9       29.88S
VIROQUA        CLOUDY    72  71  97 S7        29.89S
BOSCOBEL       CLOUDY    79  69  71 SW9       29.88F HX  81
PRAIRIE DU CHI PTSUNNY   78  69  73 SE6       29.86F HX  80
PLATTEVILLE    PTSUNNY   76  71  82 S12G17    29.92S
$$

WIZ056-057-062-063-064-067-068-291700-
SOUTH CENTRAL WISCONSIN

CITY           SKY/WX    TMP DP  RH WIND       PRES   REMARKS
BARABOO/DELLS  PTSUNNY   76  67  73 S12       29.90F
LONE ROCK      PTSUNNY   81  70  69 S10       29.90S HX  84
WATERTOWN      MOSUNNY   79  71  76 S13       29.93F HX  82
MADISON        MOSUNNY   78  68  71 S16       29.92S HX  80
MIDDLETON      PTSUNNY   77  69  75 S10       29.93S
MONROE         PTSUNNY   77  70  78 S12G18    29.94S
JANESVILLE     MOSUNNY   79  70  73 S12       29.94S HX  81
$$

WIZ051-052-058>065-066-070>072-291700-
SOUTHEAST WISCONSIN

CITY           SKY/WX    TMP DP  RH WIND       PRES   REMARKS
MILWAUKEE      PTSUNNY   73  69  87 S9        29.97S
WAUKESHA       MOSUNNY   73  66  78 S8        29.97F
MILWAUKEE/TIMM PTSUNNY   73  64  73 S9        29.97S
RACINE         LGT RAIN  72  69  90 S9        29.99S
BURLINGTON     LGT RAIN  73  70  91 S6        29.97S
KENOSHA        PTSUNNY   73  71  93 SE7       29.98F FOG
FOND DU LAC    SUNNY     79  68  69 S15G22    29.92F HX  81
SHEBOYGAN      MOSUNNY   76  69  79 S10       29.94F
WEST BEND      PTSUNNY   77  66  69 S12G17    29.95S
JUNEAU         MOSUNNY   78  69  73 S16G24    29.94F HX  80
$$

LSZ147-162-291700-
LAKE SUPERIOR

STATION/POSITION TIME  TEMP    WIND        PRES    WAVE
                       AIR SEA DIR/SP/G            HT/PER
                 (UTC) (F)     (DEG/KT/KT) (MB)    (FT/S)
W MID LAKE BUOY  1550   59 58  100/ 10/ 12 1010.4F   1/ 3
DEVILS ISLAND    1600   61     150/  6/  9 1010.1S
PORT WING        1500   62     130/  3/  4 1010.2R
SAXON HARBOR     1500   64     190/  2/  6 1010.8
$$

LMZ867-665-643>646-291700-
LAKE MICHIGAN

STATION/POSITION TIME  TEMP    WIND        PRES    WAVE
                       AIR SEA DIR/SP/G            HT/PER
                 (UTC) (F)     (DEG/KT/KT) (MB)    (FT/S)
N MID LAKE BUOY  1550   63 65  160/ 16/ 17 1014.5F   3/ 4
NORTHPORT PIER   1500   63     150/ 13/ 19 1014.6F
SISTER BAY       1411   62     140/ 11/ 15   N/A
KEWAUNEE LAKESHO 1500   66     170/ 12/ 14 1013.6F
SHEBOYGAN LAKESH 1600   69 69  170/ 16/ 18 1014.0F
ATWATER BUOY     1600   70     160/ 10/ 12 1015.8R
MILWAUKEE LAKESH 1600   71     180/  8/ 10   N/A
S MID LAKE BUOY  1550   69 69  170/ 17/ 19 1015.4F   4/ 5
KENOSHA   LAKESH 1600   72     160/ 13/ 15 1014.9R
$$

TC  - TEMPERATURE IN CELSIUS
VSB - VISIBILITY IN STATUTE MILES
WCI - WIND CHILL INDEX
HX  - HEAT INDEX



USA.gov is the U.S. government's official web portal to all federal, state and local government web resources and services.